Find Starlink 2092

NORAD ID: 47373 Int'l Des: 2021-005 Owner: SPXS Country: US Constellation: starlink operational
LEOCIRCULARSTARLINK_TYPE

当前视图

正在加载3D地球...

About Starlink 2092

Starlink 2092 (NORAD 47373) is a starlink constellation satellite (v1.0) launched Jan 20, 2021 by SPXS of US. It operates in LEO, CIRCULAR, STARLINK_TYPE orbit with a mass of 260.00 kg.

即将过境

Passes for default location (London). Set your location on the main map for personalized predictions.

高度历史

Loading altitude history...

两行轨道根数

1 47373U 21005AA 26230.43655313 .00001211 00000-0 50754-4 0 9995
2 47373 53.1586 29.8058 0000653 118.6213 241.4854 15.31704082307810
Epoch: Aug 18, 2026 • Age: 13 hours

当前状态

高度 471.1 km
远地点 / 近地点 N/A
速度 7.63 km/s
星下点 8.40°N, 80.6°E
发射日期 Jan 20, 2021
运行时间 5.5 years
类型 internet

技术详情

分类 Payload
质量 260.00 kg
干质量 248.00 kg
总质量 260.00 kg
长度 0.20 m
直径 2.80 m
跨度 9.00 m
形状 Box + pan
制造商 SPXS
平台类型 Starlink
阶段状态 In Orbit
所有者/国家 SPXS/US

Most Searched